Location: Recife
(8.0585°S, 34.8848°W)
Time: 12:07:47
(UTC-03:00)

Vanguard 2 Rocket - Pass Details

Date: 14 April 2026
Orbit: 553 x 3286 km, 32.9° (Epoch: 7 May)

Event Time Altitude Azimuth Distance (km) Brightness Sun altitude
Rises 12:50:50 0° 232° (SW) 6,800 11.4 61.3°
Reaches altitude 10° 12:55:19 10° 227° (SW) 5,991 11.3 60.4°
Maximum altitude 13:14:49 56° 152° (SSE) 3,619 10.4 56.4°
Drops below altitude 10° 13:31:33 10° 77° (ENE) 5,285 10.6 52.7°
Sets 13:35:10 0° 73° (ENE) 5,996 10.8 52.0°
